Location: *
(41.7492°S, 135.4150°W)
Time: 19:09:59
(UTC+00:00)

Cosmos 1633 Rocket - Pass Details

Date: 20 September 2021
Orbit: 608 x 623 km, 82.5° (Epoch: 16 October)

Event Time Altitude Azimuth Distance (km) Brightness Sun altitude
Rises 14:05:12 0° 343° (NNW) 2,882 6.2 -9.8°
Reaches altitude 10° 14:07:27 10° 339° (NNW) 1,983 5.4 -9.4°
Maximum altitude 14:11:46 57° 260° (W) 738 3.1 -8.6°
Drops below altitude 10° 14:16:09 10° 180° (S) 2,004 5.8 -7.8°
Sets 14:18:26 0° 176° (S) 2,915 6.6 -7.4°
